Location: Bergnerzell
(49.1816°N, 10.2565°E)
Time: 03:55:04
(UTC+00:00)

Cosmos 1850 Rocket - Pass Details

Date: 23 May 2024
Orbit: 753 x 782 km, 74.0° (Epoch: 19 June)

Event Time Altitude Azimuth Distance (km) Brightness Sun altitude
Exits shadow 01:46:19 18° 218° (SW) 1,841 5.3 -12.6°
Maximum altitude 01:50:16 64° 296° (WNW) 856 4.2 -12.2°
Drops below altitude 10° 01:55:30 10° 19° (NNE) 2,321 7.8 -11.7°
Sets 01:57:55 0° 22° (NNE) 3,246 8.9 -11.4°
